Flag for Switzerland Weather past 2 weeks in Stans, Nidwalden, Switzerland

Now
34 °F

Chilly.


Feels Like: 34 °F
Forecast: 26 / 38 °F
Wind: No wind

Location: Giswil

Current Time: Mar 4, 2015 at 8:44:53 PM

Latest Report: Mar 4, 2015 at 8:00 PM


Visibility: N/A

Pressure: 30.47 "Hg

Humidity: 95%

Dew point: 33 °F

Location of StansLocation

Historic Weather in Stans — Graph

°F

Stans temperature yesterday

Maximum temperature yesterday: 51 °F (at 3:00 PM)
Minimum temperature yesterday: 32 °F (at 6:00 AM)
Average temperature yesterday: 41 °F

Past Weeks' High & Low Weather Summary

 TemperatureHumidityPressure
High53 °F (Mar 2, 1:00 PM)100% (Feb 17, 7:00 PM)30.72 "Hg (Feb 17, 7:00 PM)
Low20 °F (Feb 20, 6:00 AM)31% (Feb 26, 4:00 PM)29.59 "Hg (Feb 21, 3:00 PM)
Average35 °F88%30.11 "Hg
* Reported Feb 17 7:00 PM — Mar 4 7:00 PM, Stans, Weather by CustomWeather, © 2015

Note: Actual official high and low records may vary slightly from our data, if they occured in-between our weather recording intervals... More about our weather records

Advertising

Stans weather history for previous 24 hours

 ConditionsComfort  
Time TempWeatherWind HumidityBarometerVisibility
7:00 PM
Wed, Mar 4
35 °FChilly.1 mph92%30.45 "HgN/A
6:00 PM35 °FChilly.1 mph91%30.44 "HgN/A
5:00 PM36 °FChilly.2 mph89%30.41 "HgN/A
4:00 PM37 °FChilly.1 mph83%30.39 "HgN/A
3:00 PM38 °FChilly.3 mph88%30.38 "HgN/A
2:00 PM38 °FChilly.No wind85%30.39 "HgN/A
1:00 PM36 °FChilly.1 mph92%30.41 "HgN/A
12:00 PM35 °FChilly.1 mph93%30.41 "HgN/A
11:00 AM34 °FChilly.No wind97%30.41 "HgN/A
10:00 AM33 °FChilly.1 mph98%30.41 "HgN/A
9:00 AM33 °FChilly.1 mph100%30.41 "HgN/A
8:00 AM34 °FChilly.2 mph97%30.39 "HgN/A
7:00 AM34 °FChilly.3 mph95%30.37 "HgN/A
6:00 AM36 °FChilly.5 mph92%30.33 "HgN/A
5:00 AM41 °FQuite cool.3 mph84%30.28 "HgN/A
3:00 AM44 °FQuite cool.8 mph69%30.24 "HgN/A
2:00 AM44 °FQuite cool.13 mph68%30.23 "HgN/A
1:00 AM42 °FQuite cool.3 mph78%30.24 "HgN/A
12:00 AM40 °FChilly.1 mph84%30.25 "HgN/A
11:00 PM
Tue, Mar 3
40 °FChilly.No wind83%30.25 "HgN/A
10:00 PM42 °FQuite cool.2 mph78%30.24 "HgN/A
9:00 PM42 °FQuite cool.2 mph66%30.23 "HgN/A
8:00 PM44 °FQuite cool.5 mph61%30.22 "HgN/A
Weather by CustomWeather, © 2015

See weather overviewHow to use our weather pages